Location: Kawakawa
(35.3830°S, 174.0670°E)
Time: 18:21:40
(UTC+12:00)

ATLAS 3B R/B - Pass Details

Date: 15 August 2020
Orbit: 1016 x 1179 km, 63.8° (Epoch: 22 September)

Event Time Altitude Azimuth Distance (km) Brightness Sun altitude
Rises 19:26:31 0° 216° (SW) 3,990 6.1 -19.8°
Reaches altitude 10° 19:29:19 10° 219° (SW) 3,001 5.5 -20.3°
Maximum altitude 19:36:14 57° 295° (WNW) 1,265 3.3 -21.7°
Drops below altitude 10° 19:42:50 10° 11° (NNE) 2,859 4.8 -23.1°
Sets 19:45:26 0° 15° (NNE) 3,787 5.4 -23.6°
